Weather History for Baltimore, MD

Change the Weather History Date:

Monday, November 19, 2012

  Actual Average Record
Temperature  
Mean Temperature 50 °F 45 °F  
Max Temperature 55 °F 55 °F 77 °F (1928)
Min Temperature 44 °F 36 °F 19 °F (2014)
Degree Days  
Heating Degree Days 15 20  
Month to date heating degree days 386 318  
Since 1 July heating degree days 642 665  
Cooling Degree Days 0 0  
Month to date cooling degree days 0 0  
Year to date cooling degree days 1569 1163  
Moisture  
Dew Point 37 °F    
Average Humidity 65    
Maximum Humidity 76    
Minimum Humidity 54    
Precipitation  
Precipitation 0.00 in 0.11 in 1.63 in (1932)
Month to date precipitation 0.50 2.06  
Year to date precipitation 34.10 37.27  
Snow  
Snow 0.00 in 0.00 in 2.00 in (1955)
Month to date snowfall 0.0 0.1  
Since 1 July snowfall 0.0 0.1  
Snow Depth 0.00 in    
Sea Level Pressure  
Sea Level Pressure 30.37 in    
Wind  
Wind Speed 6 mph (NNE)    
Max Wind Speed 13 mph    
Max Gust Speed 20 mph    
Visibility 10 miles    
Events      
T = Trace of Precipitation, MM = Missing Value Source: NWS Daily Summary

Daily Weather History Graph

Daily Weather History Graph

Search for Another Location

Airport:

Trip Planner

Search our weather history database for the weather conditions in past years. The results will help you decide how hot, cold, wet, or windy it might be!

Date:

Astronomy

Nov. 19, 2012 Rise Set
Actual Time 6:54 AM EST 4:49 PM EST
Civil Twilight 6:26 AM EST 5:18 PM EST
Nautical Twilight 5:53 AM EST 5:50 PM EST
Astronomical Twilight 5:21 AM EST 6:22 PM EST
Moon 11:57 AM EST (11/19) 11:12 PM EST (11/19)
Length of Visible Light 10h 52m
Length of Day
9h 54m
Waxing Crescent, 40% of the Moon is Illuminated
Nov 19
Waxing Crescent
Nov 20
First Quarter
Nov 28
Full
Dec 6
Last Quarter
Dec 13
New

Hourly Weather History & Observations

Time (EST) Temp. Windchill Dew Point Humidity Pressure Visibility Wind Dir Wind Speed Gust Speed Precip Events Conditions
12:54 AM 46.0 °F 41.9 °F 37.0 °F 71% 30.48 in 10.0 mi NNE 8.1 mph - N/A   Mostly Cloudy
1:54 AM 46.0 °F 42.5 °F 37.0 °F 71% 30.48 in 10.0 mi NNE 6.9 mph - N/A   Overcast
2:54 AM 46.0 °F 43.1 °F 37.0 °F 71% 30.48 in 10.0 mi NNE 5.8 mph - N/A   Overcast
3:54 AM 46.0 °F 42.5 °F 37.0 °F 71% 30.46 in 10.0 mi North 6.9 mph - N/A   Overcast
4:54 AM 46.0 °F 43.1 °F 37.0 °F 71% 30.45 in 10.0 mi North 5.8 mph - N/A   Mostly Cloudy
5:54 AM 45.0 °F 42.6 °F 37.0 °F 74% 30.45 in 10.0 mi North 4.6 mph - N/A   Mostly Cloudy
6:54 AM 45.0 °F 41.2 °F 37.0 °F 74% 30.45 in 10.0 mi North 6.9 mph - N/A   Mostly Cloudy
7:54 AM 44.1 °F 39.0 °F 36.0 °F 73% 30.45 in 10.0 mi NNE 9.2 mph - N/A   Mostly Cloudy
8:54 AM 45.0 °F 40.6 °F 37.0 °F 74% 30.45 in 10.0 mi NE 8.1 mph - N/A   Mostly Cloudy
9:54 AM 46.9 °F - 37.0 °F 68% 30.44 in 10.0 mi NE 8.1 mph - N/A   Overcast
10:54 AM 48.9 °F - 37.9 °F 66% 30.42 in 10.0 mi NNE 8.1 mph - N/A   Mostly Cloudy
11:54 AM 50.0 °F - 37.9 °F 63% 30.39 in 10.0 mi Variable 5.8 mph - N/A   Mostly Cloudy
12:54 PM 52.0 °F - 37.9 °F 59% 30.35 in 10.0 mi NNW 6.9 mph - N/A   Mostly Cloudy
1:54 PM 54.0 °F - 37.0 °F 53% 30.32 in 10.0 mi Calm Calm - N/A   Mostly Cloudy
2:54 PM 54.0 °F - 37.9 °F 55% 30.31 in 10.0 mi NNE 6.9 mph - N/A   Mostly Cloudy
3:54 PM 54.0 °F - 37.9 °F 55% 30.30 in 10.0 mi Variable 5.8 mph - N/A   Mostly Cloudy
4:54 PM 53.1 °F - 37.9 °F 57% 30.30 in 10.0 mi NE 6.9 mph - N/A   Mostly Cloudy
5:54 PM 52.0 °F - 39.0 °F 61% 30.29 in 10.0 mi NE 8.1 mph - N/A   Mostly Cloudy
6:54 PM 51.1 °F - 37.9 °F 61% 30.29 in 10.0 mi Calm Calm - N/A   Overcast
7:54 PM 50.0 °F - 37.9 °F 63% 30.28 in 10.0 mi North 5.8 mph - N/A   Overcast
8:54 PM 48.9 °F - 37.0 °F 64% 30.28 in 10.0 mi North 5.8 mph - N/A   Mostly Cloudy
9:54 PM 46.4 °F 44.3 °F 37.4 °F 71% 30.25 in 10.0 mi Variable 4.6 mph - N/A   Scattered Clouds
10:54 PM 46.0 °F 43.9 °F 37.0 °F 71% 30.24 in 10.0 mi NNW 4.6 mph - N/A   Mostly Cloudy
11:54 PM 46.9 °F - 37.0 °F 68% 30.23 in 10.0 mi North 3.5 mph - N/A   Mostly Cloudy